Davao, Philippines

8:27 AM +08 on March 31, 2017 (GMT +0800)
Bangoy International

Weather History for RPMD - November, 2013

Change the Weather History Date:

Tuesday, November 5, 2013

  Actual Average Record
Temperature  
Mean Temperature 84 °F -  
Max Temperature 92 °F - - ()
Min Temperature 76 °F - - ()
Cooling Degree Days 19    
Growing Degree Days 34 (Base 50)    
Moisture  
Dew Point 77 °F    
Average Humidity 80    
Maximum Humidity 94    
Minimum Humidity 54    
Precipitation  
Precipitation 0.00 in - - ()
Sea Level Pressure  
Sea Level Pressure 29.83 in    
Wind  
Wind Speed 4 mph ()    
Max Wind Speed 7 mph    
Max Gust Speed -    
Visibility 8.1 miles    
Events Thunderstorm    
T = Trace of Precipitation, MM = Missing Value Source: Averaged Metar Reports

Daily Weather History Graph

Daily Weather History Graph

Search for Another Location

Airport or City:

Trip Planner

Search our weather history database for the weather conditions in past years. The results will help you decide how hot, cold, wet, or windy it might be!

Date:

Astronomy

Nov. 05, 2013 Rise Set
Actual Time 5:25 AM +08 5:16 PM +08
Civil Twilight 5:03 AM +08 5:37 PM +08
Nautical Twilight 4:38 AM +08 6:03 PM +08
Astronomical Twilight 4:13 AM +08 6:27 PM +08
Moon 6:49 AM +08 (11/5) 6:57 PM +08 (11/5)
Length of Visible Light 12h 34m
Length of Day
11h 50m
Waxing Crescent, 4% of the Moon is Illuminated
Nov 5
Waxing Crescent
Nov 10
First Quarter
Nov 17
Full
Nov 26
Last Quarter
Dec 3
New

Hourly Weather History & Observations

Time (+08) Temp. Heat Index Dew Point Humidity Pressure Visibility Wind Dir Wind Speed Gust Speed Precip Events Conditions
2:00 AM 79 °F - 76 °F 88% 29.82 in 11 mi NW 2.2 mph - -   Partly Cloudy
5:00 AM 77 °F - 74 °F 90% 29.81 in 11 mi Calm Calm - -   Partly Cloudy
5:00 AM 77.0 °F - 75.2 °F 94% - - North - - N/A   Scattered Clouds
6:00 AM 77.0 °F - 75.2 °F 94% - - North - - N/A   Partly Cloudy
7:00 AM 78.8 °F - 77.0 °F 94% - - North - - N/A   Scattered Clouds
8:00 AM 82 °F - 78 °F 83% 29.88 in 11 mi ENE 6.7 mph - -   Haze
8:00 AM 82.4 °F 90.9 °F 77.0 °F 84% 29.89 in 6.2 mi ENE 6.9 mph - N/A   Scattered Clouds
9:00 AM 86.0 °F 96.9 °F 77.0 °F 74% 29.89 in 6.2 mi ENE 4.6 mph - N/A   Partly Cloudy
10:00 AM 87.8 °F 99.7 °F 77.0 °F 70% 29.89 in 6.2 mi ENE 4.6 mph - N/A   Scattered Clouds
11:00 AM 89 °F - 78 °F 63% 29.86 in 11 mi ENE 6.7 mph - -   Partly Cloudy
11:00 AM 89.6 °F 104.7 °F 78.8 °F 70% 29.86 in 6.2 mi ENE 6.9 mph - N/A   Scattered Clouds
12:00 PM 89.6 °F 104.7 °F 78.8 °F 70% 29.86 in 6.2 mi ENE 6.9 mph - N/A   Scattered Clouds
1:00 PM 91.4 °F 107.2 °F 78.8 °F 66% 29.80 in 6.2 mi East 4.6 mph - N/A   Scattered Clouds
2:00 PM 93 °F - 78 °F 54% 29.76 in 11 mi East 4.5 mph - - Thunderstorm Thunderstorm
2:00 PM 93.2 °F 110.2 °F 78.8 °F 63% 29.77 in 6.2 mi East 4.6 mph - N/A Thunderstorm Light Thunderstorm
3:00 PM 86.0 °F 101.9 °F 80.6 °F 84% 29.77 in 6.2 mi SSE 2.3 mph - N/A Thunderstorm Light Thunderstorm
4:00 PM 82.4 °F 90.9 °F 77.0 °F 84% 29.80 in - North - - N/A   Mostly Cloudy
5:00 PM 82 °F - 78 °F 83% 29.79 in 9 mi North 2.2 mph - - Thunderstorm Light Thunderstorm
5:00 PM 82.4 °F 90.9 °F 77.0 °F 84% 29.80 in - North - - N/A   Mostly Cloudy
6:00 PM 80.6 °F 86.2 °F 75.2 °F 84% 29.80 in 6.2 mi NNW 4.6 mph - N/A   Mostly Cloudy
7:00 PM 78.8 °F - 75.2 °F 89% 29.83 in - North - - N/A   Mostly Cloudy
8:00 PM 79 °F - 74 °F 81% 29.84 in 9 mi North 2.2 mph - -   Partly Cloudy
8:00 PM 78.8 °F - 73.4 °F 83% 29.86 in - North - - N/A   Mostly Cloudy
11:00 PM 78 °F - 76 °F 90% 29.87 in 9 mi North 2.2 mph - -   Partly Cloudy